FW8228 Weather Reports


Display with metric or nautical units.
time (UTC)temp
F
wind
direction
speed
MPH
gust
MPH
rain 1hr
in
rain 24hr
in
rain mn
in
humidity
%
barometer
mb
20260504070211 63 24 0.0 0.0 0.00 0.00 0.00 84 1018.7
20260504060131 65 20 0.0 0.0 0.00 0.00 0.00 83 1018.9
20260504050600 66 49 0.0 0.0 0.00 0.00 0.00 81 1019.3
20260504045554 66 58 0.0 0.0 0.00 0.00 0.00 80 1019.3
20260504045049 66 58 0.0 0.0 0.00 0.00 0.00 80 1019.4
20260504044547 67 58 0.0 0.0 0.00 0.00 0.00 80 1019.7
20260504044043 67 97 0.0 0.0 0.00 0.00 0.00 80 1019.8
20260504043540 67 59 0.0 0.0 0.00 0.00 0.00 80 1019.9
20260504043038 67 43 0.0 0.0 0.00 0.00 0.00 80 1019.8
20260504042535 67 41 0.0 0.0 0.00 0.00 0.00 80 1019.5
20260504042032 67 35 0.0 0.0 0.00 0.00 0.00 79 1019.5
20260504041527 67 61 0.0 0.0 0.00 0.00 0.00 79 1019.4
20260504041023 68 43 0.0 0.0 0.00 0.00 0.00 79 1019.5
20260504040521 68 72 0.0 0.0 0.00 0.00 0.00 79 1019.5
20260504040018 68 58 0.0 0.0 0.00 0.00 0.00 78 1019.7
20260504035515 68 68 0.0 0.0 0.00 0.00 0.00 78 1019.7
20260504035011 68 74 0.0 0.0 0.00 0.00 0.00 78 1019.7
20260504034509 68 53 0.0 0.0 0.00 0.00 0.00 78 1019.6
20260504034006 68 69 0.0 0.0 0.00 0.00 0.00 78 1019.7
20260504033503 67 69 0.0 0.0 0.00 0.00 0.00 78 1019.7
20260504033000 67 104 0.0 0.0 0.00 0.00 0.00 77 1019.3
20260504032457 68 73 0.0 0.0 0.00 0.00 0.00 77 1019.4
20260504031954 68 91 0.0 0.0 0.00 0.00 0.00 77 1019.5
20260504031451 68 82 0.0 0.0 0.00 0.00 0.00 76 1019.5
20260504030947 68 72 0.0 0.0 0.00 0.00 0.00 76 1019.5
20260504030445 68 127 0.0 0.0 0.00 0.00 0.00 76 1019.5
20260504025940 68 88 0.0 0.0 0.00 0.00 0.00 75 1019.5
20260504025437 68 64 0.0 0.0 0.00 0.00 0.00 75 1019.5
20260504024935 68 76 0.0 0.0 0.00 0.00 0.00 75 1019.4
20260504024432 68 82 0.0 0.0 0.00 0.00 0.00 75 1019.2
20260504023929 68 82 0.0 0.0 0.00 0.00 0.00 75 1019.4
20260504023425 67 101 0.0 0.0 0.00 0.00 0.00 75 1019.2
20260504022921 67 74 0.0 0.0 0.00 0.00 0.00 75 1019.5
20260504022417 67 131 0.0 0.0 0.00 0.00 0.00 75 1019.5
20260504021914 67 124 0.0 0.0 0.00 0.00 0.00 75 1019.5
20260504021411 67 85 0.0 0.0 0.00 0.00 0.00 75 1019.3
20260504020908 68 78 0.0 0.0 0.00 0.00 0.00 74 1019.1
20260504020404 68 107 0.0 0.0 0.00 0.00 0.00 74 1019.3
20260504015855 68 90 0.0 0.0 0.00 0.00 0.00 73 1018.9
20260504015351 68 107 0.0 0.0 0.00 0.00 0.00 74 1018.9
20260504014847 68 87 0.0 0.0 0.00 0.00 0.00 73 1018.9
20260504014343 69 103 0.0 0.0 0.00 0.00 0.00 73 1019.0
20260504013842 69 105 0.0 0.0 0.00 0.00 0.00 72 1018.8
20260504013339 69 92 0.0 0.0 0.00 0.00 0.00 72 1018.8
20260504012836 69 115 0.0 0.0 0.00 0.00 0.00 72 1018.6
20260504012334 69 68 0.0 0.0 0.00 0.00 0.00 71 1018.6
20260504011831 69 129 0.0 0.0 0.00 0.00 0.00 71 1018.5
20260504011327 70 80 0.0 0.0 0.00 0.00 0.00 71 1018.5
20260504010823 70 78 0.0 0.0 0.00 0.00 0.00 70 1018.4
20260504010319 70 81 0.0 0.0 0.00 0.00 0.00 70 1018.4
20260504005815 70 115 0.0 0.0 0.00 0.00 0.00 69 1018.5
20260504005313 71 74 0.0 0.0 0.00 0.00 0.00 68 1018.4
20260504004810 71 91 0.0 1.0 0.00 0.00 0.00 67 1018.3
20260504004308 71 101 0.0 0.0 0.00 0.00 0.00 66 1018.2
20260504003804 71 93 0.0 1.0 0.00 0.00 0.00 66 1018.0
20260504003301 71 72 0.0 0.0 0.00 0.00 0.00 66 1018.0
20260504002757 72 90 0.0 0.0 0.00 0.00 0.00 65 1018.1
20260504002254 72 62 0.0 0.0 0.00 0.00 0.00 64 1018.2
20260504001752 72 83 0.0 0.0 0.00 0.00 0.00 64 1018.1
20260504001249 72 77 0.0 1.0 0.00 0.00 0.00 63 1018.1
20260504000746 72 52 0.0 0.0 0.00 0.00 0.00 62 1018.2
20260504000242 73 81 0.0 1.0 0.00 0.00 0.00 61 1018.1
20260503235741 73 86 0.0 2.0 0.00 0.00 0.00 61 1018.2
20260503235238 73 81 0.0 0.0 0.00 0.00 0.00 61 1017.9
20260503234735 73 67 0.0 0.0 0.00 0.00 0.00 61 1017.8
20260503234233 73 75 0.0 0.0 0.00 0.00 0.00 61 1018.0
20260503233729 73 65 0.0 0.0 0.00 0.00 0.00 60 1017.8
20260503233225 74 140 0.0 1.0 0.00 0.00 0.00 61 1017.7
20260503232723 74 90 0.0 0.0 0.00 0.00 0.00 60 1017.6
20260503232220 74 76 0.0 0.0 0.00 0.00 0.00 60 1017.6
20260503231718 74 84 0.0 0.0 0.00 0.00 0.00 59 1017.5
20260503231215 75 116 0.0 0.0 0.00 0.00 0.00 59 1017.4
20260503230711 75 74 0.0 2.0 0.00 0.00 0.00 59 1017.5
20260503230208 75 69 0.0 0.0 0.00 0.00 0.00 60 1017.7
20260503225706 75 84 0.0 0.0 0.00 0.00 0.00 60 1017.5
20260503225206 76 75 0.0 1.0 0.00 0.00 0.00 60 1017.5
20260503224703 75 137 0.0 0.0 0.00 0.00 0.00 58 1017.6
20260503224201 76 107 0.0 0.0 0.00 0.00 0.00 57 1017.6
20260503223658 76 83 0.0 1.0 0.00 0.00 0.00 58 1017.6
20260503223155 77 94 0.0 0.0 0.00 0.00 0.00 56 1017.5
20260503222652 77 88 0.0 0.0 0.00 0.00 0.00 57 1017.5
20260503222150 76 108 0.0 0.0 0.00 0.00 0.00 56 1017.7
20260503221648 75 77 0.0 0.0 0.00 0.00 0.00 58 1017.7
20260503221145 76 75 0.0 0.0 0.00 0.00 0.00 57 1017.5
20260503220641 76 76 0.0 0.0 0.00 0.00 0.00 57 1017.7
20260503220138 76 80 0.0 2.0 0.00 0.00 0.00 57 1017.5
20260503215636 76 134 0.0 0.0 0.00 0.00 0.00 57 1017.6
20260503215132 76 110 0.0 0.0 0.00 0.00 0.00 57 1017.5
20260503214631 78 81 0.0 1.0 0.00 0.00 0.00 54 1017.4
20260503214126 78 70 0.0 0.0 0.00 0.00 0.00 54 1017.6
20260503213626 77 84 0.0 0.0 0.00 0.00 0.00 56 1017.4
20260503213122 78 90 0.0 0.0 0.00 0.00 0.00 54 1017.5
20260503212620 78 65 0.0 2.0 0.00 0.00 0.00 56 1017.4
20260503212117 77 64 0.0 0.0 0.00 0.00 0.00 56 1017.5
20260503211614 79 85 0.0 0.0 0.00 0.00 0.00 54 1017.3
20260503211110 79 75 0.0 1.0 0.00 0.00 0.00 52 1017.3
20260503210606 78 70 0.0 0.0 0.00 0.00 0.00 53 1017.3
20260503205559 79 45 0.0 0.0 0.00 0.00 0.00 53 1017.4
20260503205055 78 93 0.0 0.0 0.00 0.00 0.00 54 1017.5
20260503204552 78 6 0.0 0.0 0.00 0.00 0.00 53 1017.6
20260503204049 78 69 0.0 0.0 0.00 0.00 0.00 54 1018.0
20260503203546 77 41 0.0 2.0 0.00 0.00 0.00 56 1017.5
20260503203043 79 63 0.0 0.0 0.00 0.00 0.00 56 1017.7
20260503202541 79 124 0.0 1.0 0.00 0.00 0.00 55 1017.7
20260503202039 78 51 0.0 0.0 0.00 0.00 0.00 55 1017.9
20260503201537 78 54 0.0 1.0 0.00 0.00 0.00 54 1017.9
20260503201034 78 133 0.0 0.0 0.00 0.00 0.00 53 1018.0
20260503200530 77 92 0.0 0.0 0.00 0.00 0.00 55 1018.0
20260503200027 78 82 0.0 1.0 0.00 0.00 0.00 54 1017.9
20260503195524 78 71 0.0 1.0 0.00 0.00 0.00 54 1018.0
20260503195021 78 21 0.0 2.0 0.00 0.00 0.00 56 1018.2
20260503194518 79 70 0.0 0.0 0.00 0.00 0.00 55 1018.0
20260503194018 78 105 0.0 3.0 0.00 0.00 0.00 54 1018.5
20260503193515 78 97 0.0 0.0 0.00 0.00 0.00 56 1018.3
20260503193010 77 95 0.0 0.0 0.00 0.00 0.00 56 1018.3
20260503192506 77 64 0.0 0.0 0.00 0.00 0.00 56 1018.4
20260503192002 79 135 0.0 1.0 0.00 0.00 0.00 56 1018.5
20260503191459 81 72 0.0 3.0 0.00 0.00 0.00 54 1018.7
20260503190955 79 143 0.0 0.0 0.00 0.00 0.00 54 1018.9
20260503190453 78 12 0.0 0.0 0.00 0.00 0.00 56 1018.9
20260503185950 78 97 0.0 1.0 0.00 0.00 0.00 58 1019.1
20260503185446 77 79 0.0 0.0 0.00 0.00 0.00 59 1019.0
20260503184946 76 72 0.0 2.0 0.00 0.00 0.00 60 1019.3
20260503184443 76 144 0.0 1.0 0.00 0.00 0.00 59 1019.2
20260503183939 78 102 0.0 0.0 0.00 0.00 0.00 56 1019.3
20260503183436 78 94 0.0 0.0 0.00 0.00 0.00 59 1019.3
20260503182933 77 79 0.0 1.0 0.00 0.00 0.00 58 1019.4
20260503182432 77 74 0.0 0.0 0.00 0.00 0.00 60 1019.4
20260503181929 77 44 0.0 5.0 0.00 0.00 0.00 61 1019.4
20260503181426 76 108 0.0 0.0 0.00 0.00 0.00 61 1019.4
20260503180921 75 129 0.0 1.0 0.00 0.00 0.00 62 1019.4
20260503180420 75 113 0.0 5.0 0.00 0.00 0.00 62 1019.6
20260503175916 77 105 0.0 0.0 0.00 0.00 0.00 61 1019.6
20260503175415 76 70 0.0 5.0 0.00 0.00 0.00 62 1019.6
20260503174910 75 125 0.0 0.0 0.00 0.00 0.00 63 1019.7
20260503174408 77 78 0.0 0.0 0.00 0.00 0.00 63 1019.9
20260503173903 76 84 0.0 3.0 0.00 0.00 0.00 63 1020.0
20260503173359 74 108 0.0 0.0 0.00 0.00 0.00 66 1019.9
20260503172856 76 103 0.0 2.0 0.00 0.00 0.00 64 1020.0
20260503172354 75 70 0.0 1.0 0.00 0.00 0.00 65 1020.0
20260503171849 74 68 0.0 2.0 0.00 0.00 0.00 66 1019.9
20260503171346 73 58 0.0 1.0 0.00 0.00 0.00 69 1019.9
20260503170844 74 126 0.0 1.0 0.00 0.00 0.00 68 1020.0
20260503170340 74 67 0.0 0.0 0.00 0.00 0.00 68 1020.2
20260503150732 70 90 0.0 3.0 0.00 0.00 0.00 73 1020.4
20260503150229 70 78 0.0 2.0 0.00 0.00 0.00 74 1020.3
20260503140153 66 19 1.0 2.0 0.00 0.00 0.00 80 1020.0
20260503131117 63 2 0.0 0.0 0.00 0.00 0.00 86 1019.9
20260503130615 62 37 0.0 1.0 0.00 0.00 0.00 87 1019.7
20260503130112 61 46 0.0 2.0 0.00 0.00 0.00 89 1019.7
20260503110504 59 33 0.0 0.0 0.00 0.00 0.00 93 1018.7
20260503090350 60 15 0.0 0.0 0.00 0.00 0.00 92 1017.9
20260503081312 60 5 0.0 0.0 0.00 0.00 0.00 91 1017.3
20260503080808 60 35 0.0 0.0 0.00 0.00 0.00 91 1017.2
20260503080305 61 357 0.0 0.0 0.00 0.00 0.00 90 1017.0